{"data":{"norad_id":61904,"epoch":"2026-09-22T22:20:26.005056Z","epoch_age_seconds":92339,"freshness":"FRESH","line1":"1 61904U 24205L   26265.93085654  .00004305  00000+0  26200-3 0  9998","line2":"2 61904  97.4051 332.9742 0066426  31.3496 329.1666 15.09075955102932","mean_motion":15.09075955,"eccentricity":0.0066426,"inclination_deg":97.4051,"raan_deg":332.9742,"arg_perigee_deg":31.3496,"mean_anomaly_deg":329.1666,"bstar":0.000262,"rev_number":10293,"period_min":95.422632322042,"perigee_km":493.07434077958,"apogee_km":584.97018501905,"semimajor_km":6917.1592628993,"source":"CELESTRAK","updated_at":"2026-09-23T09:00:21.099836Z"}}